COSMOS 1331 DEB

Satellite information

Favourite Embed

Satellite Type and Status

DEBRISIN ORBIT

Key statistics

Satellite COSMOS 1331 DEB at a glance.

Uptime

15997

Days in orbit

Revolutions

≈ 14.4

Per day

Orbit

LEO

Low Earth Orbit

Inclination

74.0

Latest

Satellite identification and parameters

Extended collection of information and parameters for COSMOS 1331 DEB.

Object identification

Identified? True

Debris? True

Object name: COSMOS 1331 DEB

International designator: 1982-001E

Object number (NORAD): 37863

Object ID (CCSDS): 37863

Country: COMMONWEALTH OF INDEPENDENT STATES (CIS)

Current information (Y/N): Y

RCS size: SMALL

Orbital parameters

Period: 99.956 minutes

Inclination: 74.0466 deg

SMA: 7134.529 km

Apoapsis: 772.695 km

Periapsis: 740.093 km

RAAN: 183.0026 deg

Eccentricy: 0.00228476

Argument of periapsis: 184.7836 deg

Mean anomaly: 175.3105 deg

Mean motion: 14.40637791 rev/day

Mean motion (dot): 0.00000521 rev/day2

B* drag term: 0.00017092385 1/REarth

Two-line elements (TLE)

Creation date: Oct. 23, 2025, 6:40 p.m.

Reference frame: TEME

Reference center: EARTH

Epoch: Oct. 23, 2025, 12:54 a.m. UTC

TLE line 0: 0 COSMOS 1331 DEB

TLE line 1: 1 37863U 82001E 25296.03770290 .00000521 00000-0 17092-3 0 9990

TLE line 2: 2 37863 74.0466 183.0026 0022848 184.7836 175.3105 14.40637791668405

Live tracking on map

Real-time ground track for satellite COSMOS 1331 DEB.

In-orbit conjunctions

A list of the most updated potential collisions computed for object COSMOS 1331 DEB.

Target Orbit TCA Probability of collision Miss distance Type
DMSP 5D-2 F13 DEB SSO 2024-10-13 07:02:25 0.000141944 143.0 (m) DEBRIS
FENGYUN 1C DEB SSO 2024-09-25 13:46:25 0.000405547 226.0 (m) DEBRIS

Associated space launch

Military communications satellite

COSMOS 1331 DEB was lifted into orbit during the mission ‘Kosmos-3M | Strela-2M 26’, on board a Kosmos-3M space rocket.

The launch took place on Jan. 7, 1982, 3:38 p.m. from 132/2.

For more information about the launch, click the button.

Launch to space Kosmos-3M | Strela-2M 26
Kosmos-3M | Strela-2M 26

Agency: N/A

Status: Launch Successful

Launch date: Jan. 7, 1982, 3:38 p.m. UTC

Rocket: Kosmos-3M

Launch pad: 132/2

Location: Plesetsk Cosmodrome, Russian Federation

...

Latest news about this satellite

There are no fresh news available about this satellite. Check back as we update our databases every day.


Newsletter sign-up

Weekly statistics, charts and insights to help you stay on top of the space industry.